Hourly Weather Dahod

Today, 18 January, Monday

Time Temperature Precipitation Wind Pressure Humidity
00:00 +22°C° 0 mm 0 mps 732 mmHg 51%
01:00 +22°C° 0 mm 0 mps 732 mmHg 52%
02:00 +23°C° 0 mm 1 mps 731 mmHg 53%
03:00 +21°C° 0 mm 0 mps 731 mmHg 53%
04:00 +21°C° 0 mm 0 mps 732 mmHg 54%
05:00 +20°C° 0 mm 0 mps 732 mmHg 54%
06:00 +21°C° 0 mm 0 mps 732 mmHg 52%
07:00 +22°C° 0 mm 0 mps 733 mmHg 50%
08:00 +22°C° 0 mm 0 mps 733 mmHg 48%
09:00 +24°C° 0 mm 0 mps 734 mmHg 44%
10:00 +28°C° 0 mm 1 mps 734 mmHg 39%
11:00 +30°C° 0 mm 1 mps 734 mmHg 36%
12:00 +31°C° 0 mm 2 mps 734 mmHg 33%
13:00 +32°C° 0 mm 2 mps 733 mmHg 30%
14:00 +34°C° 0 mm 3 mps 732 mmHg 27%
15:00 +33°C° 0 mm 3 mps 732 mmHg 27%
16:00 +31°C° 0 mm 3 mps 732 mmHg 27%
17:00 +31°C° 0 mm 3 mps 732 mmHg 28%
18:00 +29°C° 0 mm 2 mps 732 mmHg 28%
19:00 +27°C° 0 mm 2 mps 732 mmHg 29%
20:00 +26°C° 0 mm 2 mps 732 mmHg 30%
21:00 +25°C° 0 mm 1 mps 732 mmHg 30%
22:00 +24°C° 0 mm 1 mps 732 mmHg 31%
23:00 +24°C° 0 mm 1 mps 732 mmHg 31%

Tomorrow, 19 January, Tuesday

Time Temperature Precipitation Wind Pressure Humidity
00:00 +23°C° 0 mm 1 mps 732 mmHg 32%
01:00 +22°C° 0 mm 1 mps 732 mmHg 33%
02:00 +22°C° 0 mm 1 mps 732 mmHg 34%
03:00 +21°C° 0 mm 1 mps 732 mmHg 35%
04:00 +21°C° 0 mm 1 mps 732 mmHg 35%
05:00 +18°C° 0 mm 0 mps 732 mmHg 36%
06:00 +21°C° 0 mm 1 mps 732 mmHg 36%
07:00 +22°C° 0 mm 1 mps 733 mmHg 35%
08:00 +23°C° 0 mm 1 mps 734 mmHg 35%
09:00 +25°C° 0 mm 1 mps 734 mmHg 31%
10:00 +28°C° 0 mm 1 mps 734 mmHg 27%
11:00 +29°C° 0 mm 0 mps 734 mmHg 22%
12:00 +31°C° 0 mm 1 mps 733 mmHg 20%
13:00 +32°C° 0 mm 2 mps 733 mmHg 18%
14:00 +34°C° 0 mm 3 mps 732 mmHg 16%
15:00 +33°C° 0 mm 3 mps 732 mmHg 17%
16:00 +31°C° 0 mm 3 mps 732 mmHg 19%
17:00 +30°C° 0 mm 3 mps 731 mmHg 20%
18:00 +28°C° 0 mm 2 mps 732 mmHg 22%
19:00 +26°C° 0 mm 2 mps 732 mmHg 24%
20:00 +24°C° 0 mm 1 mps 733 mmHg 26%
21:00 +24°C° 0 mm 1 mps 733 mmHg 27%
22:00 +23°C° 0 mm 1 mps 733 mmHg 28%
23:00 +21°C° 0 mm 0 mps 733 mmHg 29%

Day after tomorrow, 20 January, Wednesday

Time Temperature Precipitation Wind Pressure Humidity
00:00 +22°C° 0 mm 1 mps 733 mmHg 31%
01:00 +21°C° 0 mm 1 mps 732 mmHg 33%
02:00 +21°C° 0 mm 1 mps 732 mmHg 34%
03:00 +20°C° 0 mm 1 mps 732 mmHg 37%
04:00 +20°C° 0 mm 1 mps 732 mmHg 39%
05:00 +19°C° 0 mm 1 mps 732 mmHg 41%
06:00 +20°C° 0 mm 1 mps 733 mmHg 41%
07:00 +21°C° 0 mm 1 mps 733 mmHg 41%
08:00 +22°C° 0 mm 1 mps 734 mmHg 41%
09:00 +24°C° 0 mm 1 mps 734 mmHg 36%
10:00 +26°C° 0 mm 1 mps 734 mmHg 30%
11:00 +29°C° 0 mm 1 mps 735 mmHg 25%
12:00 +30°C° 0 mm 1 mps 734 mmHg 22%
13:00 +31°C° 0 mm 1 mps 733 mmHg 20%
14:00 +32°C° 0 mm 2 mps 733 mmHg 17%
15:00 +31°C° 0 mm 2 mps 732 mmHg 19%
16:00 +30°C° 0 mm 2 mps 732 mmHg 20%
17:00 +30°C° 0 mm 2 mps 732 mmHg 21%
18:00 +28°C° 0 mm 2 mps 733 mmHg 24%
19:00 +26°C° 0 mm 2 mps 733 mmHg 27%
20:00 +24°C° 0 mm 1 mps 733 mmHg 29%
21:00 +23°C° 0 mm 1 mps 733 mmHg 31%
22:00 +23°C° 0 mm 1 mps 733 mmHg 32%
23:00 +21°C° 0 mm 2 mps 733 mmHg 33%

21 January, Thursday

Time Temperature Precipitation Wind Pressure Humidity
00:00 +21°C° 0 mm 2 mps 733 mmHg 35%
01:00 +20°C° 0 mm 2 mps 733 mmHg 38%
02:00 +19°C° 0 mm 2 mps 733 mmHg 40%
03:00 +19°C° 0 mm 2 mps 733 mmHg 41%
04:00 +18°C° 0 mm 2 mps 733 mmHg 42%
05:00 +18°C° 0 mm 2 mps 732 mmHg 43%
06:00 +18°C° 0 mm 2 mps 733 mmHg 42%
07:00 +19°C° 0 mm 2 mps 734 mmHg 40%
08:00 +20°C° 0 mm 3 mps 734 mmHg 39%
09:00 +22°C° 0 mm 3 mps 734 mmHg 34%
10:00 +26°C° 0 mm 3 mps 735 mmHg 29%
11:00 +29°C° 0 mm 3 mps 735 mmHg 23%
12:00 +30°C° 0 mm 2 mps 734 mmHg 21%
13:00 +31°C° 0 mm 2 mps 733 mmHg 19%
14:00 +32°C° 0 mm 1 mps 732 mmHg 18%
15:00 +31°C° 0 mm 1 mps 732 mmHg 18%
16:00 +30°C° 0 mm 1 mps 732 mmHg 19%
17:00 +30°C° 0 mm 2 mps 732 mmHg 20%
18:00 +28°C° 0 mm 2 mps 732 mmHg 22%
19:00 +26°C° 0 mm 2 mps 733 mmHg 24%
20:00 +24°C° 0 mm 2 mps 733 mmHg 25%
21:00 +23°C° 0 mm 2 mps 733 mmHg 26%
22:00 +23°C° 0 mm 2 mps 733 mmHg 27%
23:00 +21°C° 0 mm 2 mps 733 mmHg 28%

22 January, Friday

Time Temperature Precipitation Wind Pressure Humidity
00:00 +21°C° 0 mm 2 mps 733 mmHg 28%
01:00 +20°C° 0 mm 2 mps 733 mmHg 28%
02:00 +20°C° 0 mm 2 mps 733 mmHg 28%
03:00 +19°C° 0 mm 2 mps 732 mmHg 28%
04:00 +19°C° 0 mm 2 mps 732 mmHg 28%
05:00 +18°C° 0 mm 2 mps 732 mmHg 28%
06:00 +19°C° 0 mm 2 mps 733 mmHg 28%
07:00 +20°C° 0 mm 2 mps 733 mmHg 28%
08:00 +20°C° 0 mm 2 mps 734 mmHg 29%
09:00 +24°C° 0 mm 3 mps 734 mmHg 25%
10:00 +27°C° 0 mm 3 mps 734 mmHg 22%
11:00 +30°C° 0 mm 3 mps 735 mmHg 19%
12:00 +31°C° 0 mm 3 mps 734 mmHg 17%
13:00 +31°C° 0 mm 2 mps 733 mmHg 16%
14:00 +32°C° 0 mm 2 mps 732 mmHg 15%
15:00 +32°C° 0 mm 2 mps 732 mmHg 17%
16:00 +31°C° 0 mm 1 mps 732 mmHg 18%
17:00 +30°C° 0 mm 1 mps 731 mmHg 19%
18:00 +28°C° 0 mm 1 mps 732 mmHg 21%
19:00 +26°C° 0 mm 1 mps 732 mmHg 22%
20:00 +25°C° 0 mm 1 mps 732 mmHg 24%
21:00 +24°C° 0 mm 1 mps 732 mmHg 25%
22:00 +21°C° 0 mm 0 mps 732 mmHg 26%
23:00 +21°C° 0 mm 0 mps 732 mmHg 26%

23 January, Saturday

Time Temperature Precipitation Wind Pressure Humidity
00:00 +20°C° 0 mm 0 mps 732 mmHg 28%
01:00 +20°C° 0 mm 0 mps 732 mmHg 29%
02:00 +19°C° 0 mm 0 mps 732 mmHg 30%
03:00 +19°C° 0 mm 0 mps 732 mmHg 30%
04:00 +20°C° 0 mm 1 mps 731 mmHg 31%
05:00 +20°C° 0 mm 1 mps 731 mmHg 31%
06:00 +21°C° 0 mm 1 mps 732 mmHg 31%
07:00 +22°C° 0 mm 1 mps 732 mmHg 32%
08:00 +22°C° 0 mm 1 mps 733 mmHg 32%
09:00 +25°C° 0 mm 1 mps 733 mmHg 28%
10:00 +27°C° 0 mm 2 mps 733 mmHg 24%
11:00 +30°C° 0 mm 2 mps 733 mmHg 20%
12:00 +31°C° 0 mm 3 mps 733 mmHg 18%
13:00 +33°C° 0 mm 4 mps 732 mmHg 17%
14:00 +34°C° 0 mm 4 mps 731 mmHg 15%
15:00 +33°C° 0 mm 4 mps 731 mmHg 17%
16:00 +31°C° 0 mm 3 mps 731 mmHg 19%
17:00 +30°C° 0 mm 3 mps 730 mmHg 20%
18:00 +28°C° 0 mm 3 mps 731 mmHg 23%
19:00 +26°C° 0 mm 2 mps 731 mmHg 26%
20:00 +24°C° 0 mm 2 mps 732 mmHg 29%
21:00 +23°C° 0 mm 2 mps 732 mmHg 32%
22:00 +23°C° 0 mm 2 mps 732 mmHg 35%
23:00 +21°C° 0 mm 2 mps 732 mmHg 38%
Show more

We Need Your Consent

Meteoprog and our Service Providers may store and access personal data such as cookies, device identifiers or other similar technologies on your device and process such data to personalise content and ads, as well as provide social media features and to analyse the traffic.

  • Store and/or access information on your device

    Cookies, device identifiers or other information can be stored or accessed on your device for the purposes indicated above.

  • Personalised ads and content, ad and content measurement, audience insights, and products development

    Ads and content can be personalised based on a profile. More data can be added to better personalise ads and content. Ad and content performance can be measured. Insights about the audience who saw the ads and content can be derived. Such data can be used to develop or improve user’s experience, systems and software.

By clicking ‘I Agree’ you will allow the use of indicated cookies, device identifiers, web beacons or other similar technologies. Your settings can be changed in the browser on your device.

For certain purposes, legitimate interests may be relied on, rather than consent. You can read more about this in our Privacy and Cookie Policy.